User: anonymous   Login
Location: Unspecified
(0.0000°N, 0.0000°E)
Time: 14:46:39
(UTC+00:00)
Language:

PACE - Orbit

View from above orbital plane
View from above orbital plane
View from above satellite
View from above satellite

Ground track
Ground track

The orbit data is extracted from the following two-line orbital elements,

1 40022U 14033N   17206.21503047 +.00000189 +00000-0 +26511-4 0  9994
2 40022 097.9116 117.2570 0013415 176.1767 183.9554 14.88223260168124
Epoch (UTC): 25 July 2017 05:09:38
Eccentricity: 0.0013415
inclination: 97.9116°
perigee height: 594 km
apogee height: 613 km
right ascension of ascending node: 117.2570°
argument of perigee: 176.1767°
revolutions per day: 14.88223260
mean anomaly at epoch: 183.9554°
orbit number at epoch: 16812

The dashed part of the orbit path shows where the satellite is in the earth's shadow,  

DLR